Tracking 33873 objects as of 21-Apr-2026
HD Live streaming from Space Station
objects crossing your sky now

ONEWEB-0670

Track ONEWEB-0670 now!
10-day predictions
ONEWEB-0670 is classified as:


NORAD ID: 55829
Int'l Code: 2023-029AK
Perigee: 1,211.4 km
Apogee: 1,214.5 km
Inclination: 87.9 °
Period: 109.5 minutes
Semi major axis: 7583 km
RCS: Unknown
Launch date: March 9, 2023
Source: United Kingdom (UK)
Launch site: AIR FORCE EASTERN TEST RANGE (AFETR)
Your satellite tracking list
Your tracking list is empty




NASA's NSSDC Master Catalog

Two Line Element Set (TLE):
1 55829U 23029AK  26110.81948411  .00000202  00000-0  51004-3 0  9998
2 55829  87.8916 301.1971 0002084  96.7965 263.3401 13.14502141151893
Source of the keplerian elements: AFSPC